,,,PA_Meas_PMT16A,,PR_Meas_QMR101_102,,RH_Meas_QMH101,,SR_Meas_QMS101,,TA_Meas_QMH101,,GenWind,,GenWind,
date,time,status,PA,status,PR,status,RH,status,SR,status,TA,status,DirAvg,status,SpdAvg,
2010-05-14, 00:00:04,VALID,1002.6,VALID,0,VALID,85.6494,VALID,0,VALID,27.168,VALID,56,VALID,1.15156,
2010-05-14, 00:01:04,VALID,1002.57,VALID,0,VALID,85.3595,VALID,0,VALID,27.1895,VALID,59,VALID,1.24219,
2010-05-14, 00:02:04,VALID,1002.56,VALID,0,VALID,85.3367,VALID,0,VALID,27.1895,VALID,51,VALID,0.755469,
2010-05-14, 00:03:04,VALID,1002.55,VALID,0,VALID,85.3595,VALID,0,VALID,27.168,VALID,20,VALID,0.674219,
2010-05-14, 00:04:04,VALID,1002.57,VALID,0,VALID,85.4358,VALID,0,VALID,27.1895,VALID,45,VALID,0.766016,
2010-05-14, 00:05:04,VALID,1002.58,VALID,0,VALID,85.4435,VALID,0,VALID,27.1506,VALID,53,VALID,0.298047,
2010-05-14, 00:06:04,VALID,1002.53,VALID,0,VALID,85.4511,VALID,0.100563,VALID,27.129,VALID,78,VALID,1.16797,
2010-05-14, 00:07:04,VALID,1002.55,VALID,0,VALID,85.4969,VALID,0,VALID,27.1311,VALID,36,VALID,1.10195,
2010-05-14, 00:08:04,VALID,1002.58,VALID,0,VALID,85.5045,VALID,0,VALID,27.1311,VALID,36,VALID,1.00391,
2010-05-14, 00:09:04,VALID,1002.55,VALID,0,VALID,85.5121,VALID,0,VALID,27.09,VALID,70,VALID,1.25937,
2010-05-14, 00:10:04,VALID,1002.54,VALID,0,VALID,85.5732,VALID,0,VALID,27.1116,VALID,90,VALID,0.572266,
2010-05-14, 00:11:04,VALID,1002.49,VALID,0,VALID,85.6342,VALID,0,VALID,27.0921,VALID,75,VALID,0.763281,
2010-05-14, 00:12:04,VALID,1002.47,VALID,0,VALID,85.5884,VALID,0,VALID,27.0921,VALID,346,VALID,0.720703,
2010-05-14, 00:13:04,VALID,1002.42,VALID,0,VALID,85.6494,VALID,0,VALID,27.0726,VALID,82,VALID,0.899609,
2010-05-14, 00:14:04,VALID,1002.41,VALID,0,VALID,85.6723,VALID,0,VALID,27.0726,VALID,37,VALID,0.717188,
2010-05-14, 00:15:04,VALID,1002.43,VALID,0,VALID,85.7639,VALID,0,VALID,27.0336,VALID,69,VALID,0.735547,
2010-05-14, 00:16:04,VALID,1002.4,VALID,0,VALID,85.8325,VALID,0,VALID,27.0531,VALID,44,VALID,0.562891,
2010-05-14, 00:17:04,VALID,1002.41,VALID,0,VALID,85.8249,VALID,0,VALID,27.0336,VALID,48,VALID,0.496094,
2010-05-14, 00:18:04,VALID,1002.43,VALID,0,VALID,85.9851,VALID,0,VALID,26.9926,VALID,355,VALID,0.533594,
2010-05-14, 00:19:04,VALID,1002.45,VALID,0,VALID,86.1072,VALID,0,VALID,26.9732,VALID,10,VALID,0.170703,
2010-05-14, 00:20:04,VALID,1002.46,VALID,0,VALID,86.1148,VALID,0,VALID,26.9537,VALID,34,VALID,0.691016,
2010-05-14, 00:21:04,VALID,1002.47,VALID,0,VALID,86.1606,VALID,0,VALID,26.9537,VALID,28,VALID,0.450391,
2010-05-14, 00:22:04,VALID,1002.52,VALID,0,VALID,86.0156,VALID,0,VALID,26.9967,VALID,143,VALID,0.463672,
2010-05-14, 00:23:04,VALID,1002.48,VALID,0,VALID,85.9165,VALID,0,VALID,26.9947,VALID,116,VALID,0.194141,
2010-05-14, 00:24:04,VALID,1002.48,VALID,0,VALID,85.8631,VALID,0,VALID,26.9947,VALID,21,VALID,0.855078,
2010-05-14, 00:25:04,VALID,1002.47,VALID,0,VALID,85.9088,VALID,0,VALID,26.9947,VALID,33,VALID,0.785547,
2010-05-14, 00:26:04,VALID,1002.49,VALID,0,VALID,85.8402,VALID,0,VALID,26.9926,VALID,84,VALID,1.0043,
2010-05-14, 00:27:04,VALID,1002.47,VALID,0,VALID,85.7868,VALID,0,VALID,26.9947,VALID,24,VALID,0.683984,
2010-05-14, 00:28:04,VALID,1002.46,VALID,0,VALID,85.802,VALID,0,VALID,26.9732,VALID,78,VALID,0.766797,
2010-05-14, 00:29:04,VALID,1002.43,VALID,0,VALID,85.7028,VALID,0,VALID,27.0142,VALID,21,VALID,0.792578,
2010-05-14, 00:30:04,VALID,1002.43,VALID,0,VALID,85.7105,VALID,0,VALID,26.9947,VALID,78,VALID,0.678906,
2010-05-14, 00:31:04,VALID,1002.37,VALID,0,VALID,85.6952,VALID,0,VALID,26.9947,VALID,89,VALID,0.6875,
2010-05-14, 00:32:04,VALID,1002.42,VALID,0,VALID,85.7028,VALID,0,VALID,26.9926,VALID,30,VALID,0.478125,
2010-05-14, 00:33:04,VALID,1002.38,VALID,0,VALID,85.7028,VALID,0,VALID,26.9947,VALID,46,VALID,0.781641,
2010-05-14, 00:34:04,VALID,1002.41,VALID,0,VALID,85.7868,VALID,0,VALID,26.9947,VALID,87,VALID,0.253516,
2010-05-14, 00:35:04,VALID,1002.4,VALID,0,VALID,85.8402,VALID,0,VALID,26.9752,VALID,78,VALID,0.391406,
2010-05-14, 00:36:04,VALID,1002.41,VALID,0,VALID,85.9622,VALID,0,VALID,26.9362,VALID,78,VALID,0.169141,
2010-05-14, 00:37:04,VALID,1002.46,VALID,0,VALID,86.1224,VALID,0,VALID,26.8952,VALID,105,VALID,0.750391,
2010-05-14, 00:38:04,VALID,1002.46,VALID,0,VALID,86.2216,VALID,0,VALID,26.8563,VALID,69,VALID,0.200781,
2010-05-14, 00:39:04,VALID,1002.44,VALID,0,VALID,86.3132,VALID,0,VALID,26.8583,VALID,69,VALID,0.192969,
2010-05-14, 00:40:04,VALID,1002.46,VALID,0,VALID,86.4505,VALID,0,VALID,26.7978,VALID,66,VALID,0.427734,
2010-05-14, 00:41:04,VALID,1002.45,VALID,0,VALID,86.5954,VALID,0,VALID,26.7783,VALID,86,VALID,0.573438,
2010-05-14, 00:42:04,VALID,1002.41,VALID,0,VALID,86.6565,VALID,0,VALID,26.7783,VALID,5,VALID,1.22617,
2010-05-14, 00:43:04,VALID,1002.45,VALID,0,VALID,86.6488,VALID,0,VALID,26.7783,VALID,86,VALID,0.585547,
2010-05-14, 00:44:04,VALID,1002.43,VALID,0,VALID,86.7785,VALID,0.100563,VALID,26.7589,VALID,31,VALID,0.544531,
2010-05-14, 00:45:04,VALID,1002.38,VALID,0,VALID,86.7785,VALID,0,VALID,26.7804,VALID,56,VALID,0.865234,
2010-05-14, 00:46:04,VALID,1002.36,VALID,0,VALID,86.7938,VALID,0,VALID,26.8019,VALID,77,VALID,0.326953,
2010-05-14, 00:47:04,VALID,1002.32,VALID,0,VALID,86.8243,VALID,0,VALID,26.7609,VALID,81,VALID,0.968359,
2010-05-14, 00:48:04,VALID,1002.27,VALID,0,VALID,86.9006,VALID,0,VALID,26.7609,VALID,71,VALID,0.449609,
2010-05-14, 00:49:04,VALID,1002.25,VALID,0,VALID,87.0074,VALID,0,VALID,26.7004,VALID,10,VALID,0.80625,
2010-05-14, 00:50:04,VALID,1002.22,VALID,0,VALID,87.1676,VALID,0,VALID,26.6809,VALID,7,VALID,0.915234,
2010-05-14, 00:51:04,VALID,1002.24,VALID,0,VALID,87.1752,VALID,0,VALID,26.7024,VALID,24,VALID,0.975,
2010-05-14, 00:52:04,VALID,1002.25,VALID,0,VALID,87.1828,VALID,0,VALID,26.7024,VALID,13,VALID,1.14805,
2010-05-14, 00:53:04,VALID,1002.27,VALID,0,VALID,87.0989,VALID,0,VALID,26.7219,VALID,20,VALID,1.34883,
2010-05-14, 00:54:04,VALID,1002.29,VALID,0,VALID,86.8929,VALID,0,VALID,26.7804,VALID,20,VALID,0.862891,
2010-05-14, 00:55:04,VALID,1002.29,VALID,0,VALID,86.7709,VALID,0,VALID,26.7978,VALID,354,VALID,0.365625,
2010-05-14, 00:56:04,VALID,1002.31,VALID,0,VALID,86.7099,VALID,0.100563,VALID,26.8193,VALID,46,VALID,0.163281,
2010-05-14, 00:57:04,VALID,1002.32,VALID,0,VALID,86.6259,VALID,0,VALID,26.7978,VALID,24,VALID,1.37227,
2010-05-14, 00:58:04,VALID,1002.33,VALID,0,VALID,86.5268,VALID,0,VALID,26.8173,VALID,112,VALID,0.944141,
2010-05-14, 00:59:04,VALID,1002.3,VALID,0,VALID,86.5725,VALID,0.100563,VALID,26.8173,VALID,111,VALID,0.219531,
2010-05-14, 01:00:04,VALID,1002.28,VALID,0,VALID,86.5039,VALID,0,VALID,26.8193,VALID,86,VALID,0.226563,
2010-05-14, 01:01:04,VALID,1002.27,VALID,0,VALID,86.6488,VALID,0,VALID,26.7589,VALID,86,VALID,0.140234,
2010-05-14, 01:02:04,VALID,1002.28,VALID,0,VALID,86.7785,VALID,0,VALID,26.7394,VALID,86,VALID,0.282031,
2010-05-14, 01:03:04,VALID,1002.24,VALID,0,VALID,86.8777,VALID,0,VALID,26.7199,VALID,96,VALID,0.429297,
2010-05-14, 01:04:04,VALID,1002.18,VALID,0,VALID,87.0684,VALID,0,VALID,26.7219,VALID,92,VALID,0.232031,
2010-05-14, 01:05:04,VALID,1002.17,VALID,0,VALID,87.1981,VALID,0,VALID,26.7024,VALID,68,VALID,0.366406,
2010-05-14, 01:06:04,VALID,1002.15,VALID,0,VALID,87.3278,VALID,0,VALID,26.683,VALID,26,VALID,0.670703,
2010-05-14, 01:07:04,VALID,1002.14,VALID,0,VALID,87.4422,VALID,0,VALID,26.6635,VALID,13,VALID,0.695703,
2010-05-14, 01:08:04,VALID,1002.15,VALID,0,VALID,87.3354,VALID,0,VALID,26.6635,VALID,17,VALID,1.03672,
2010-05-14, 01:09:04,VALID,1002.1,VALID,0,VALID,87.282,VALID,0,VALID,26.683,VALID,359,VALID,0.865625,
2010-05-14, 01:10:04,VALID,1002.11,VALID,0,VALID,87.2744,VALID,0,VALID,26.6809,VALID,17,VALID,1.02656,
2010-05-14, 01:11:04,VALID,1002.11,VALID,0,VALID,87.1676,VALID,0,VALID,26.7239,VALID,16,VALID,0.582422,
2010-05-14, 01:12:04,VALID,1002.14,VALID,0,VALID,87.16,VALID,0,VALID,26.7004,VALID,16,VALID,0.366016,
2010-05-14, 01:13:04,VALID,1002.12,VALID,0,VALID,87.1447,VALID,0,VALID,26.683,VALID,16,VALID,0.470703,
2010-05-14, 01:14:04,VALID,1002.16,VALID,0,VALID,87.2515,VALID,0,VALID,26.683,VALID,16,VALID,0.297266,
2010-05-14, 01:15:04,VALID,1002.15,VALID,0,VALID,87.3125,VALID,0,VALID,26.683,VALID,18,VALID,0.432422,
2010-05-14, 01:16:04,VALID,1002.23,VALID,0,VALID,87.3965,VALID,0,VALID,26.6635,VALID,31,VALID,0.373047,
2010-05-14, 01:17:04,VALID,1002.24,VALID,0,VALID,87.3278,VALID,0,VALID,26.7024,VALID,76,VALID,0.658203,
2010-05-14, 01:18:04,VALID,1002.25,VALID,0,VALID,87.3049,VALID,0,VALID,26.7004,VALID,74,VALID,0.327344,
2010-05-14, 01:19:04,VALID,1002.22,VALID,0,VALID,87.2591,VALID,0,VALID,26.7219,VALID,79,VALID,0.283594,
2010-05-14, 01:20:04,VALID,1002.25,VALID,0,VALID,87.2286,VALID,0,VALID,26.7219,VALID,80,VALID,0.310937,
2010-05-14, 01:21:04,VALID,1002.22,VALID,0,VALID,87.2439,VALID,0,VALID,26.7024,VALID,83,VALID,0.38125,
2010-05-14, 01:22:04,VALID,1002.23,VALID,0,VALID,87.2744,VALID,0,VALID,26.7219,VALID,23,VALID,0.355859,
2010-05-14, 01:23:04,VALID,1002.2,VALID,0,VALID,87.3583,VALID,0,VALID,26.7024,VALID,27,VALID,0.601172,
2010-05-14, 01:24:04,VALID,1002.18,VALID,0,VALID,87.3736,VALID,0,VALID,26.7219,VALID,40,VALID,0.748438,
2010-05-14, 01:25:04,VALID,1002.14,VALID,0,VALID,87.4346,VALID,0,VALID,26.683,VALID,37,VALID,0.442969,
2010-05-14, 01:26:04,VALID,1002.12,VALID,0,VALID,87.4651,VALID,0,VALID,26.6809,VALID,65,VALID,1.47578,
2010-05-14, 01:27:04,VALID,1002.08,VALID,0,VALID,87.2515,VALID,0,VALID,26.7998,VALID,15,VALID,1.025,
2010-05-14, 01:28:04,VALID,1002.08,VALID,0,VALID,87.1981,VALID,0,VALID,26.8388,VALID,1,VALID,0.762891,
2010-05-14, 01:29:04,VALID,1002.08,VALID,0,VALID,87.2439,VALID,0,VALID,26.8193,VALID,351,VALID,0.328125,
2010-05-14, 01:30:04,VALID,1002.1,VALID,0,VALID,87.5033,VALID,0,VALID,26.7978,VALID,353,VALID,0.432031,
2010-05-14, 01:31:04,VALID,1002.03,VALID,0,VALID,87.6558,VALID,0,VALID,26.7609,VALID,3,VALID,0.2875,
2010-05-14, 01:32:04,VALID,1001.96,VALID,0,VALID,87.6253,VALID,0,VALID,26.7609,VALID,59,VALID,0.500781,
2010-05-14, 01:33:04,VALID,1001.9,VALID,0,VALID,87.7855,VALID,0,VALID,26.7394,VALID,13,VALID,0.553906,
2010-05-14, 01:34:04,VALID,1001.9,VALID,0,VALID,87.9152,VALID,0,VALID,26.7414,VALID,65,VALID,0.749609,
2010-05-14, 01:35:04,VALID,1001.88,VALID,0,VALID,87.9228,VALID,0,VALID,26.7609,VALID,61,VALID,0.626172,
2010-05-14, 01:36:04,VALID,1001.88,VALID,0,VALID,87.961,VALID,0,VALID,26.7414,VALID,72,VALID,0.578125,
2010-05-14, 01:37:04,VALID,1001.82,VALID,0,VALID,87.961,VALID,0,VALID,26.7219,VALID,26,VALID,0.944531,
2010-05-14, 01:38:04,VALID,1001.85,VALID,0,VALID,87.9915,VALID,0,VALID,26.7024,VALID,25,VALID,1.12734,
2010-05-14, 01:39:04,VALID,1001.8,VALID,0,VALID,88.0602,VALID,0,VALID,26.683,VALID,8,VALID,0.696484,
2010-05-14, 01:40:04,VALID,1001.78,VALID,0,VALID,88.0754,VALID,0,VALID,26.644,VALID,13,VALID,0.491016,
2010-05-14, 01:41:04,VALID,1001.77,VALID,0,VALID,88.1059,VALID,0,VALID,26.605,VALID,57,VALID,0.260156,
2010-05-14, 01:42:04,VALID,1001.79,VALID,0,VALID,88.2051,VALID,0,VALID,26.5641,VALID,49,VALID,0.346094,
2010-05-14, 01:43:04,VALID,1001.77,VALID,0,VALID,88.167,VALID,0,VALID,26.5661,VALID,87,VALID,0.591016,
2010-05-14, 01:44:04,VALID,1001.76,VALID,0,VALID,87.9839,VALID,0,VALID,26.5466,VALID,72,VALID,0.796484,
2010-05-14, 01:45:04,VALID,1001.75,VALID,0,VALID,88.1212,VALID,0,VALID,26.5466,VALID,93,VALID,0.467578,
2010-05-14, 01:46:04,VALID,1001.76,VALID,0,VALID,88.1288,VALID,0,VALID,26.5271,VALID,83,VALID,1.18477,
2010-05-14, 01:47:04,VALID,1001.76,VALID,0,VALID,88.0449,VALID,0,VALID,26.5466,VALID,59,VALID,0.862891,
2010-05-14, 01:48:04,VALID,1001.76,VALID,0,VALID,87.8771,VALID,0,VALID,26.5835,VALID,66,VALID,1.23516,
2010-05-14, 01:49:04,VALID,1001.72,VALID,0,VALID,87.7016,VALID,0,VALID,26.6245,VALID,60,VALID,1.88008,
2010-05-14, 01:50:04,VALID,1001.71,VALID,0,VALID,87.4193,VALID,0,VALID,26.7219,VALID,75,VALID,0.809766,
2010-05-14, 01:51:04,VALID,1001.67,VALID,0,VALID,87.16,VALID,0,VALID,26.7609,VALID,66,VALID,1.02969,
2010-05-14, 01:52:04,VALID,1001.68,VALID,0,VALID,86.9998,VALID,0,VALID,26.7589,VALID,85,VALID,1.35391,
2010-05-14, 01:53:04,VALID,1001.68,VALID,0,VALID,86.7709,VALID,0,VALID,26.8193,VALID,62,VALID,1.52461,
2010-05-14, 01:54:04,VALID,1001.64,VALID,0,VALID,86.7175,VALID,0,VALID,26.8583,VALID,53,VALID,1.40469,
2010-05-14, 01:55:04,VALID,1001.63,VALID,0,VALID,86.4505,VALID,0,VALID,26.8778,VALID,103,VALID,0.830859,
2010-05-14, 01:56:04,VALID,1001.62,VALID,0,VALID,86.3894,VALID,0,VALID,26.8757,VALID,115,VALID,0.741406,
2010-05-14, 01:57:04,VALID,1001.63,VALID,0,VALID,86.2369,VALID,0,VALID,26.8973,VALID,112,VALID,1.53047,
2010-05-14, 01:58:04,VALID,1001.64,VALID,0,VALID,86.1682,VALID,0,VALID,26.9362,VALID,56,VALID,0.635156,
2010-05-14, 01:59:04,VALID,1001.63,VALID,0,VALID,85.8859,VALID,0,VALID,26.9752,VALID,108,VALID,1.55234,
2010-05-14, 02:00:04,VALID,1001.64,VALID,0,VALID,85.5426,VALID,0,VALID,26.9926,VALID,111,VALID,1.80117,
2010-05-14, 02:01:04,VALID,1001.69,VALID,0,VALID,85.2985,VALID,0,VALID,27.0921,VALID,104,VALID,1.37266,
2010-05-14, 02:02:04,VALID,1001.7,VALID,0,VALID,85.1078,VALID,0,VALID,27.1311,VALID,68,VALID,1.22031,
2010-05-14, 02:03:04,VALID,1001.75,VALID,0,VALID,85.2604,VALID,0,VALID,27.1311,VALID,68,VALID,1.98359,
2010-05-14, 02:04:04,VALID,1001.78,VALID,0.5,VALID,86.6031,VALID,0,VALID,27.0336,VALID,45,VALID,1.39531,
2010-05-14, 02:05:04,VALID,1001.77,VALID,0.5,VALID,87.488,VALID,0,VALID,26.7589,VALID,113,VALID,2.43594,
2010-05-14, 02:06:04,VALID,1001.72,VALID,0,VALID,88.5866,VALID,0,VALID,26.5855,VALID,63,VALID,2.69492,
2010-05-14, 02:07:04,VALID,1001.71,VALID,0,VALID,90.9591,VALID,0,VALID,26.4881,VALID,86,VALID,0.875781,
2010-05-14, 02:08:04,VALID,1001.78,VALID,0,VALID,92.7977,VALID,0,VALID,26.4102,VALID,96,VALID,3.37773,
2010-05-14, 02:09:04,VALID,1001.76,VALID,0,VALID,93.202,VALID,0,VALID,26.4297,VALID,88,VALID,1.27773,
2010-05-14, 02:10:04,VALID,1001.74,VALID,0,VALID,93.4919,VALID,0,VALID,26.3713,VALID,72,VALID,1.18398,
2010-05-14, 02:11:04,VALID,1001.69,VALID,0,VALID,93.7055,VALID,0,VALID,26.3713,VALID,45,VALID,1.10859,
2010-05-14, 02:12:04,VALID,1001.71,VALID,0,VALID,93.9039,VALID,0,VALID,26.3343,VALID,77,VALID,0.764844,
2010-05-14, 02:13:04,VALID,1001.72,VALID,0,VALID,94.148,VALID,0,VALID,26.2913,VALID,91,VALID,1.22539,
2010-05-14, 02:14:04,VALID,1001.69,VALID,0,VALID,94.1633,VALID,0,VALID,26.3128,VALID,101,VALID,2.43086,
2010-05-14, 02:15:04,VALID,1001.68,VALID,0,VALID,94.1022,VALID,0,VALID,26.3518,VALID,77,VALID,2.30586,
2010-05-14, 02:16:04,VALID,1001.65,VALID,0,VALID,94.1022,VALID,0,VALID,26.3323,VALID,88,VALID,1.06562,
2010-05-14, 02:17:04,VALID,1001.64,VALID,0,VALID,94.0412,VALID,0,VALID,26.3323,VALID,93,VALID,2.33555,
2010-05-14, 02:18:04,VALID,1001.59,VALID,0,VALID,93.9573,VALID,0,VALID,26.3498,VALID,101,VALID,2.04297,
2010-05-14, 02:19:04,VALID,1001.61,VALID,0,VALID,93.9191,VALID,0,VALID,26.3518,VALID,45,VALID,0.895703,
2010-05-14, 02:20:04,VALID,1001.62,VALID,0,VALID,94.0183,VALID,0,VALID,26.3128,VALID,31,VALID,1.12617,
2010-05-14, 02:21:04,VALID,1001.61,VALID,0,VALID,94.209,VALID,0,VALID,26.2739,VALID,18,VALID,1.25625,
2010-05-14, 02:22:04,VALID,1001.55,VALID,0,VALID,94.0946,VALID,0,VALID,26.2739,VALID,17,VALID,2.96055,
2010-05-14, 02:23:04,VALID,1001.58,VALID,0,VALID,94.0183,VALID,0,VALID,26.2933,VALID,22,VALID,1.28008,
2010-05-14, 02:24:04,VALID,1001.6,VALID,0,VALID,93.9878,VALID,0,VALID,26.2933,VALID,57,VALID,1.67148,
2010-05-14, 02:25:04,VALID,1001.57,VALID,0,VALID,94.0107,VALID,0,VALID,26.2933,VALID,11,VALID,1.15625,
2010-05-14, 02:26:04,VALID,1001.52,VALID,0,VALID,94.1251,VALID,0,VALID,26.2739,VALID,12,VALID,0.923047,
2010-05-14, 02:27:04,VALID,1001.56,VALID,0,VALID,94.2548,VALID,0,VALID,26.2564,VALID,21,VALID,1.42891,
2010-05-14, 02:28:04,VALID,1001.54,VALID,0,VALID,94.3311,VALID,0,VALID,26.2349,VALID,8,VALID,0.328906,
2010-05-14, 02:29:04,VALID,1001.55,VALID,0,VALID,94.4455,VALID,0,VALID,26.1959,VALID,5,VALID,0.955469,
2010-05-14, 02:30:04,VALID,1001.55,VALID,0,VALID,94.5676,VALID,0,VALID,26.1959,VALID,344,VALID,0.591406,
2010-05-14, 02:31:04,VALID,1001.53,VALID,0,VALID,94.6668,VALID,0,VALID,26.1765,VALID,12,VALID,1.05664,
2010-05-14, 02:32:04,VALID,1001.55,VALID,0,VALID,94.6744,VALID,0,VALID,26.1765,VALID,29,VALID,0.825781,
2010-05-14, 02:33:04,VALID,1001.57,VALID,0,VALID,94.682,VALID,0.100563,VALID,26.1765,VALID,83,VALID,0.653516,
2010-05-14, 02:34:04,VALID,1001.58,VALID,0,VALID,94.6744,VALID,0,VALID,26.1355,VALID,82,VALID,0.371484,
2010-05-14, 02:35:04,VALID,1001.56,VALID,0,VALID,94.7354,VALID,0,VALID,26.1375,VALID,83,VALID,0.429297,
2010-05-14, 02:36:04,VALID,1001.54,VALID,0,VALID,94.7583,VALID,0,VALID,26.118,VALID,72,VALID,0.223828,
2010-05-14, 02:37:04,VALID,1001.51,VALID,0,VALID,94.7965,VALID,0,VALID,26.0791,VALID,75,VALID,0.644141,
2010-05-14, 02:38:04,VALID,1001.49,VALID,0,VALID,94.8041,VALID,0,VALID,26.0791,VALID,75,VALID,0.357422,
2010-05-14, 02:39:04,VALID,1001.48,VALID,0,VALID,94.7354,VALID,0,VALID,26.0381,VALID,93,VALID,1.01445,
2010-05-14, 02:40:04,VALID,1001.44,VALID,0,VALID,94.5905,VALID,0,VALID,26.0791,VALID,72,VALID,0.579687,
2010-05-14, 02:41:04,VALID,1001.44,VALID,0,VALID,94.5142,VALID,0,VALID,26.0381,VALID,34,VALID,0.682031,
2010-05-14, 02:42:04,VALID,1001.44,VALID,0,VALID,94.4989,VALID,0,VALID,26.0596,VALID,34,VALID,0.364062,
2010-05-14, 02:43:04,VALID,1001.46,VALID,0,VALID,94.5905,VALID,0,VALID,26.0012,VALID,34,VALID,0.330469,
2010-05-14, 02:44:04,VALID,1001.45,VALID,0,VALID,94.682,VALID,0,VALID,26.0012,VALID,34,VALID,0.49375,
2010-05-14, 02:45:04,VALID,1001.46,VALID,0,VALID,94.7736,VALID,0,VALID,25.9408,VALID,33,VALID,0.447266,
2010-05-14, 02:46:04,VALID,1001.5,VALID,0,VALID,94.8041,VALID,0,VALID,25.9427,VALID,47,VALID,0.498437,
2010-05-14, 02:47:04,VALID,1001.45,VALID,0,VALID,94.8499,VALID,0,VALID,25.9427,VALID,57,VALID,0.294141,
2010-05-14, 02:48:04,VALID,1001.48,VALID,0,VALID,94.8346,VALID,0,VALID,25.9427,VALID,54,VALID,0.417578,
2010-05-14, 02:49:04,VALID,1001.55,VALID,0,VALID,94.8422,VALID,0,VALID,25.9213,VALID,40,VALID,0.23125,
2010-05-14, 02:50:04,VALID,1001.58,VALID,0,VALID,94.8346,VALID,0,VALID,25.9232,VALID,64,VALID,0.379687,
2010-05-14, 02:51:04,VALID,1001.59,VALID,0,VALID,94.8651,VALID,0,VALID,25.9018,VALID,64,VALID,0.162891,
2010-05-14, 02:52:04,VALID,1001.63,VALID,0,VALID,94.9796,VALID,0.100563,VALID,25.9038,VALID,144,VALID,0.555078,
2010-05-14, 02:53:04,VALID,1001.61,VALID,0,VALID,95.0177,VALID,0,VALID,25.8843,VALID,33,VALID,0.485547,
2010-05-14, 02:54:04,VALID,1001.64,VALID,0,VALID,95.033,VALID,0,VALID,25.8843,VALID,12,VALID,0.879687,
2010-05-14, 02:55:04,VALID,1001.65,VALID,0,VALID,95.0101,VALID,0,VALID,25.8823,VALID,34,VALID,0.4375,
2010-05-14, 02:56:04,VALID,1001.66,VALID,0,VALID,95.0253,VALID,0,VALID,25.8823,VALID,34,VALID,0.0589844,
2010-05-14, 02:57:04,VALID,1001.73,VALID,0,VALID,94.9948,VALID,0,VALID,25.8629,VALID,55,VALID,0.321875,
2010-05-14, 02:58:04,VALID,1001.82,VALID,0,VALID,94.9948,VALID,0,VALID,25.8629,VALID,43,VALID,1.04141,
2010-05-14, 02:59:04,VALID,1001.88,VALID,0,VALID,94.9719,VALID,0,VALID,25.9038,VALID,37,VALID,0.542188,
2010-05-14, 03:00:04,VALID,1001.89,VALID,0,VALID,94.9567,VALID,0,VALID,25.9018,VALID,32,VALID,0.655078,
2010-05-14, 03:01:04,VALID,1001.91,VALID,0,VALID,94.9185,VALID,0,VALID,25.9408,VALID,11,VALID,0.828516,
2010-05-14, 03:02:04,VALID,1001.98,VALID,0,VALID,94.8499,VALID,0,VALID,25.9622,VALID,65,VALID,0.366797,
2010-05-14, 03:03:04,VALID,1002.03,VALID,0,VALID,94.7965,VALID,0,VALID,25.9408,VALID,65,VALID,0.374219,
2010-05-14, 03:04:04,VALID,1002.06,VALID,0,VALID,94.8651,VALID,0.100563,VALID,25.9408,VALID,72,VALID,0.845703,
2010-05-14, 03:05:04,VALID,1002.06,VALID,0,VALID,94.9262,VALID,0,VALID,26.0401,VALID,92,VALID,1.28477,
2010-05-14, 03:06:04,VALID,1002.06,VALID,0,VALID,94.8422,VALID,0,VALID,26.1745,VALID,82,VALID,1.02188,
2010-05-14, 03:07:04,VALID,1002.12,VALID,0,VALID,94.4837,VALID,0,VALID,26.2739,VALID,58,VALID,1.2543,
2010-05-14, 03:08:04,VALID,1002.13,VALID,0,VALID,94.1709,VALID,0,VALID,26.3128,VALID,80,VALID,0.852734,
2010-05-14, 03:09:04,VALID,1002.17,VALID,0,VALID,93.9725,VALID,0,VALID,26.3108,VALID,71,VALID,1.16797,
2010-05-14, 03:10:04,VALID,1002.18,VALID,0,VALID,93.675,VALID,0,VALID,26.3518,VALID,79,VALID,1.02344,
2010-05-14, 03:11:04,VALID,1002.19,VALID,0,VALID,93.5453,VALID,0,VALID,26.3498,VALID,57,VALID,0.638281,
2010-05-14, 03:12:04,VALID,1002.22,VALID,0,VALID,93.5148,VALID,0,VALID,26.3303,VALID,63,VALID,0.358594,
2010-05-14, 03:13:04,VALID,1002.22,VALID,0,VALID,93.5758,VALID,0,VALID,26.3323,VALID,89,VALID,0.909375,
2010-05-14, 03:14:04,VALID,1002.2,VALID,0,VALID,93.5758,VALID,0,VALID,26.3303,VALID,96,VALID,1.26797,
2010-05-14, 03:15:04,VALID,1002.18,VALID,0,VALID,93.3165,VALID,0,VALID,26.3498,VALID,46,VALID,0.742578,
2010-05-14, 03:16:04,VALID,1002.15,VALID,0,VALID,93.1639,VALID,0,VALID,26.3498,VALID,43,VALID,0.735547,
2010-05-14, 03:17:04,VALID,1002.11,VALID,0,VALID,93.3012,VALID,0,VALID,26.3108,VALID,77,VALID,0.535156,
2010-05-14, 03:18:04,VALID,1002.11,VALID,0,VALID,93.3928,VALID,0,VALID,26.2933,VALID,73,VALID,0.530859,
2010-05-14, 03:19:04,VALID,1002.14,VALID,0,VALID,93.5835,VALID,0,VALID,26.2739,VALID,75,VALID,1.13906,
2010-05-14, 03:20:04,VALID,1002.11,VALID,0,VALID,93.6064,VALID,0,VALID,26.2524,VALID,27,VALID,0.499219,
2010-05-14, 03:21:04,VALID,1002.1,VALID,0,VALID,93.6826,VALID,0,VALID,26.2544,VALID,119,VALID,0.773047,
2010-05-14, 03:22:04,VALID,1002.06,VALID,0,VALID,93.8429,VALID,0.100563,VALID,26.2134,VALID,117,VALID,0.253906,
2010-05-14, 03:23:04,VALID,1002.02,VALID,0,VALID,93.9115,VALID,0,VALID,26.1745,VALID,91,VALID,1.89766,
2010-05-14, 03:24:04,VALID,1002.02,VALID,0,VALID,93.9039,VALID,0.100563,VALID,26.2349,VALID,84,VALID,0.957812,
2010-05-14, 03:25:04,VALID,1001.97,VALID,0,VALID,93.7666,VALID,0.100563,VALID,26.2329,VALID,41,VALID,0.333203,
2010-05-14, 03:26:04,VALID,1001.96,VALID,0,VALID,93.7437,VALID,0,VALID,26.2134,VALID,106,VALID,1.12227,
2010-05-14, 03:27:04,VALID,1001.94,VALID,0,VALID,93.7742,VALID,0,VALID,26.2329,VALID,98,VALID,0.826563,
2010-05-14, 03:28:04,VALID,1001.91,VALID,0,VALID,93.7971,VALID,0,VALID,26.2349,VALID,98,VALID,0.851953,
2010-05-14, 03:29:04,VALID,1001.89,VALID,0,VALID,93.7971,VALID,0,VALID,26.194,VALID,95,VALID,0.385156,
2010-05-14, 03:30:04,VALID,1001.86,VALID,0,VALID,93.9268,VALID,0,VALID,26.194,VALID,91,VALID,0.670703,
2010-05-14, 03:31:04,VALID,1001.85,VALID,0,VALID,93.9878,VALID,0,VALID,26.194,VALID,56,VALID,0.420703,
2010-05-14, 03:32:04,VALID,1001.83,VALID,0,VALID,94.0259,VALID,0,VALID,26.1959,VALID,59,VALID,0.422656,
2010-05-14, 03:33:04,VALID,1001.76,VALID,0,VALID,94.0717,VALID,0,VALID,26.1355,VALID,13,VALID,1.02109,
2010-05-14, 03:34:04,VALID,1001.78,VALID,0,VALID,94.1785,VALID,0,VALID,26.1355,VALID,36,VALID,0.574609,
2010-05-14, 03:35:04,VALID,1001.74,VALID,0,VALID,94.2624,VALID,0,VALID,26.0966,VALID,46,VALID,0.146484,
2010-05-14, 03:36:04,VALID,1001.74,VALID,0,VALID,94.3769,VALID,0.100563,VALID,26.0985,VALID,18,VALID,0.353516,
2010-05-14, 03:37:04,VALID,1001.72,VALID,0,VALID,94.4608,VALID,0.100563,VALID,26.0771,VALID,56,VALID,0.982813,
2010-05-14, 03:38:04,VALID,1001.68,VALID,0,VALID,94.4684,VALID,0.100563,VALID,26.0771,VALID,74,VALID,0.312891,
2010-05-14, 03:39:04,VALID,1001.7,VALID,0,VALID,94.4532,VALID,0,VALID,26.0771,VALID,51,VALID,0.414453,
2010-05-14, 03:40:04,VALID,1001.67,VALID,0,VALID,94.4532,VALID,0.100563,VALID,26.0771,VALID,44,VALID,0.582031,
2010-05-14, 03:41:04,VALID,1001.7,VALID,0,VALID,94.5218,VALID,0,VALID,26.0576,VALID,19,VALID,0.471875,
2010-05-14, 03:42:04,VALID,1001.74,VALID,0,VALID,94.621,VALID,0,VALID,26.0791,VALID,43,VALID,1.31055,
2010-05-14, 03:43:04,VALID,1001.75,VALID,0,VALID,94.6134,VALID,0.100563,VALID,26.0771,VALID,57,VALID,0.606641,
2010-05-14, 03:44:04,VALID,1001.75,VALID,0,VALID,94.5752,VALID,0.100563,VALID,26.0576,VALID,93,VALID,0.457422,
2010-05-14, 03:45:04,VALID,1001.76,VALID,0,VALID,94.5676,VALID,0,VALID,26.0596,VALID,359,VALID,0.837109,